Other Public Products
Issued by NWS Grand Forks, ND

Home | Current Version | Previous Version | Graphics & Text | Print | Product List | Glossary On
Versions: 1 2 3 4 5 6 7 8 9 10 11 12 13 14 15 16 17 18 19 20 21 22 23 24 25 26 27 28 29 30 31 32 33 34 35 36 37 38 39 40 41 42 43 44 45 46 47 48 49 50
000
FPUS83 KFGF 010810
OPUFGF
PRAIRIE TO PINES WEATHER ROUNDUP
NATIONAL WEATHER SERVICE EASTERN NORTH DAKOTA/GRAND FORKS ND
300 AM CDT SUN MAY 01 2016

 **SATELLITE DATA USED TO AUGMENT SKY COVER AT AUTOMATED STATIONS**
 *****  WEATHER ACROSS EASTERN NORTH DAKOTA  *****

CITY           SKY/WX    TMP DP  RH WIND       PRES   REMARKS
GRAND FORKS    CLEAR     34  27  75 N5        30.26S
GRAND FORKS AF CLEAR     35  25  66 N6        30.27R
GRAND CITY NWS NOT AVBL
BUXTON         NOT AVBL
DEVILS LAKE    CLEAR     36  29  75 N7        30.29F
FARGO          CLEAR     40  27  59 CALM      30.24R
WAHPETON ARPT  SUNNY     41  28  60 E9        30.23S
$$

 *****  WEATHER ACROSS CENTRAL AND WESTERN NORTH DAKOTA  *****

CITY           SKY/WX    TMP DP  RH WIND       PRES   REMARKS
JAMESTOWN      CLEAR     35  28  75 N8        30.24S
BISMARCK       CLEAR     35  30  82 CALM      30.29S
MINOT          CLEAR     40  27  59 NW5       30.31S
MINOT AFB      CLOUDY    30  26  83 NW6       30.30F WCI  24
GARRISON         N/A     35  29  78 N6        30.30S
WILLISTON      CLEAR     42  29  59 NW3       30.32F
DICKINSON      CLEAR     32  26  78 NW7       30.28S
HETTINGER      CLEAR     28  24  85 CALM      30.30S
$$

 *****  OTHER OBSERVATIONS NORTHEAST NORTH DAKOTA  *****

CITY           SKY/WX    TMP DP  RH WIND       PRES   REMARKS
WALHALLA       FAIR      34  34 100 CALM      30.31S
LANGDON        FAIR      30  23  74 N3        30.30F
CAVALIER       FAIR      39  30  70 N5        30.30S
GRAFTON        FAIR      37  28  70 N9        30.30S
CANDO          FAIR      32  27  80 N9        30.33S WCI  24
FORT TOTTEN      N/A     39  30  70 NE3       29.95S
ROLLA          FAIR      34  25  69 NW9       30.32S
RUGBY          FAIR      37  30  75 E7        30.30F
 ***** THE ABOVE OBSERVATIONS ARE NON NWS ARE NOT QUALITY
        CONTROLLED AND MAY MIS-REPORT RAIN FOR SNOW...
$$

 *****  OTHER OBSERVATIONS SOUTHEAST NORTH DAKOTA *****

CITY           SKY/WX    TMP DP  RH WIND       PRES   REMARKS
COOPERSTOWN    NOT AVBL
VALLEY CITY    FAIR      41  27  56 NE6       30.26S
OAKES            N/A    N/A N/A N/A MISG        N/A
GWINNER        FAIR      37  32  81 N6        30.23S
SHEYENNE NWR     N/A     37  28  70 NE3       29.95S
BUFFALO        NOT AVBL
WYNDMERE         N/A     37  30  75 NE3         N/A
 ***** THE ABOVE OBSERVATIONS ARE NON NWS ARE NOT QUALITY
       CONTROLLED AND MAY MIS-REPORT RAIN FOR SNOW...
$$

  *****  WEATHER ACROSS NORTHERN MINNESOTA  *****

CITY           SKY/WX    TMP DP  RH WIND       PRES   REMARKS
FLAG ISLAND    CLEAR     43  36  75 N3        30.28S
WARROAD        CLEAR     41  32  70 N5        30.28S
ROSEAU         CLEAR     36  28  75 CALM      30.28S
HALLOCK        CLEAR     37  27  65 N8        30.28F
THF RVR FALLS  CLEAR     39  25  56 N8        30.27S
HALSTAD        NOT AVBL
FOSSTON        CLEAR     34  25  69 E3        30.25S
BAUDETTE       CLEAR     38  26  62 CALM      30.26S
WASKISH        CLEAR     37  32  81 CALM      30.26R
CROOKSTON      CLEAR     43  28  56 E6        30.26F
$$
  *****  WEATHER ACROSS CENTRAL AND WEST MINNESOTA  *****

CITY           SKY/WX    TMP DP  RH WIND       PRES   REMARKS
BEMIDJI        CLEAR     36  30  77 SE3       30.25S
PARK RAPIDS    CLEAR     39  27  62 N5        30.23S
WADENA         CLEAR     36  27  69 N6        30.21F
DETROIT LAKES  CLEAR     41  30  65 E3        30.25S
MOORHEAD       CLEAR     36  28  75 CALM      30.25S
FERGUS FALLS   CLEAR     39  30  70 E7        30.21S
ELBOW LAKE     FAIR      40  30  67 NE7       30.21S
MORRIS MN      CLOUDY    39  28  65 NE10      30.18R
STAPLES        CLEAR     36  27  69 N5        30.21S
WHEATON        CLEAR     43  30  61 NE7       30.23R
$$
  *****  WEATHER ELSEWHERE ACROSS MINNESOTA  *****

CITY           SKY/WX    TMP DP  RH WIND       PRES   REMARKS
DULUTH         CLEAR     34  27  75 NE7       30.21S
INTRNTL FALLS  CLEAR     34  28  79 E5        30.27R
ELY            CLEAR     34  28  80 NE5       30.24F
CLOQUET        CLEAR     37  27  65 NE8       30.21S
BRAINERD       CLEAR     35  27  72 NE6       30.21S
HIBBING        CLEAR     25  24  96 CALM      30.23S
ALEXANDRIA     CLEAR     38  26  62 NE8       30.19F
SAINT CLOUD    CLOUDY    40  29  64 N6        30.16S
MINNEAPOLIS    CLOUDY    44  32  62 NE6       30.13R
$$

  *****  WEATHER ACROSS SOUTH DAKOTA  *****

CITY           SKY/WX    TMP DP  RH WIND       PRES   REMARKS
SIOUX FALLS    CLOUDY    43  39  86 NE13      30.09S
BROOKINGS      CLOUDY    41  32  70 NE9       30.12R
WATERTOWN      CLOUDY    40  28  62 NE14      30.15R
HURON          CLOUDY    41  32  70 NE10      30.15S
SISSETON         N/A     35  30  82 NW3       30.20S
ABERDEEN       CLEAR     35  30  82 N6        30.21R
MITCHELL       CLOUDY    44  41  89 N8        30.13S
PIERRE         CLOUDY    36  31  82 E3        30.18R
MOBRIDGE       CLEAR     44  30  57 NE15      30.20S
RAPID CITY     CLEAR     34  29  82 N9        30.24S
$$

  *****  SOME WEATHER IN NEARBY STATES *****

CITY           SKY/WX    TMP DP  RH WIND       PRES   REMARKS
GLASGOW MT     PTCLDY    40  30  67 E6        30.32S
GREAT FALLS MT CLEAR     35  31  85 CALM      30.33S
CHEYENNE WY    LGT SNOW  31  28  89 N13       30.21S FOG     WCI  21
SCOTTSBLUFF NE CLOUDY    37  34  89 NW7       30.22S
OMAHA NE       LGT RAIN  47  44  90 NE9       29.92S
DES MOINES IA  CLOUDY    46  42  86 E13       29.93F
DAVENPORT IA   CLOUDY    45  44  97 NE12      29.93R FOG
CHICAGO IL     DRIZZLE   45  44  97 NE10      29.91S FOG
EAU CLAIRE WI  CLOUDY    46  32  58 NE8       30.09S
LA CROSSE WI   CLOUDY    48  37  65 NE12      30.05S
$$

  *****  SOME NATIONAL WEATHER *****

CITY           SKY/WX    TMP DP  RH WIND       PRES   REMARKS
LA GUARDIA NY  CLOUDY    50  35  56 S3        30.20S
RALEIGH NC     CLOUDY    60  56  86 CALM      30.12F
ATLANTA GA     MOCLDY    69  65  86 SE5       29.98S
NEW ORLEANS LA PTCLDY    71  67  87 SE6       29.85F
OKLAHOMA CITY  PTCLDY    52  42  69 N15       29.97S
ALBUQUERQUE NM CLOUDY    44  33  65 E36G43    29.92F
SALT LAKE CITY CLOUDY    51  25  36 E20G25    30.02R
LOS ANGELES CA PTCLDY    59  51  75 CALM      29.86R
BOISE ID       CLEAR     46  36  68 CALM      30.10R
SEATTLE WA     CLEAR     56  39  53 NE9       30.29S
$$

*** WEATHER ACROSS MANITOBA...SASKATCHEWAN AND ONTARIO ***
                ***ONTARIO***

CITY           SKY/WX    TMP DP  RH WIND       PRES   REMARKS
GERALDTON      CLOUDY    37  32  81 NE6       30.30F
THUNDER BAY    CLEAR     28  27  93 SW3       30.26F
SIOUX LOOKOUT  CLEAR     28  27  93 SE2       30.30F
TORONTO        LGT RAIN  46  39  76 E8        30.02F
BIG TROUT LK   CLEAR     28  27  93 E5        30.32F WCI  23
PICKLE LAKE    NOT AVBL
DRYDEN         CLEAR     36  32  87 E5        30.28F
KENORA         CLEAR     41  27  56 E7        30.28F
$$
                *** MANITOBA***

CITY           SKY/WX    TMP DP  RH WIND       PRES   REMARKS
BRANDON        CLEAR     32  23  69 N5        30.33F
DAUPHIN        CLEAR     34  27  75 W10       30.33F
ISLAND LAKE    PTCLDY    36  27  69 CALM      30.29S
PILOT MOUND      N/A     36  23  60 NE3         N/A
THE PAS        CLEAR     43  30  61 S7        30.26F
THOMPSON       NOT AVBL
WINNIPEG       CLEAR     39  28  65 NE5       30.32S
LYNN LAKE      CLEAR     45  25  45 S6        30.13F
CHURCHILL      CLOUDY    28  27  93 SE18G25   30.24F WCI  16
$$
                ***SASKATCHEWAN***

CITY           SKY/WX    TMP DP  RH WIND       PRES   REMARKS
ESTEVAN        NOT AVBL
KINDERSLEY     CLEAR     43  32  65 S3        30.29F
LLOYDMINSTER   CLEAR     45  34  65 SW9       30.23F
PRINCE ALBERT  MOCLDY    48  30  49 W3        30.25F
REGINA         CLEAR     36  21  55 SE9       30.33F
YORKTON        CLEAR     43  30  61 S9        30.33F
N. BATTLEFORD  CLEAR     43  34  70 S5        30.28F   C1F1C2F2C3F3C4F4C5F5C6F6C7F7C8F8C9F9CaFaCbFbCcFcCdFdCe!


USA.gov is the U.S. government's official web portal to all federal, state and local government web resources and services.